Chignik, AK

10:42 PM AKDT on September 26, 2016 (GMT -0800)
Chignik

Weather History for PAJC - April, 2013

Change the Weather History Date:

Wednesday, April 3, 2013

  Actual Average Record
Temperature  
Mean Temperature 36 °F -  
Max Temperature 37 °F 35 °F 53 °F (2006)
Min Temperature 35 °F 28 °F 19 °F (2004)
Degree Days  
Heating Degree Days 29    
Moisture  
Dew Point 32 °F    
Average Humidity 82    
Maximum Humidity 87    
Minimum Humidity 70    
Precipitation  
Precipitation 0.00 in - - ()
Sea Level Pressure  
Sea Level Pressure 29.88 in    
Wind  
Wind Speed 14 mph (ESE)    
Max Wind Speed 21 mph    
Max Gust Speed 32 mph    
Visibility 9 miles    
Events      
Averages and records for this station are not official NWS values.
T = Trace of Precipitation, MM = Missing Value Source: NWS Daily Summary

Daily Weather History Graph

Daily Weather History Graph

Search for Another Location

Airport or City:

Trip Planner

Search our weather history database for the weather conditions in past years. The results will help you decide how hot, cold, wet, or windy it might be!

Date:

Astronomy

Apr. 03, 2013 Rise Set
Actual Time 7:57 AM AKDT 9:17 PM AKDT
Civil Twilight 7:18 AM AKDT 9:56 PM AKDT
Nautical Twilight 6:30 AM AKDT 10:44 PM AKDT
Astronomical Twilight 5:37 AM AKDT 11:38 PM AKDT
Moon 4:57 AM AKDT (4/3) 1:34 PM AKDT (4/3)
Length of Visible Light 14h 37m
Length of Day
13h 20m
Last Quarter, 43% of the Moon is Illuminated
Apr 3
Last Quarter
Apr 10
New
Apr 18
First Quarter
Apr 25
Full
May 2
Last Quarter

Hourly Weather History & Observations

Time (AKDT) Temp. Windchill Dew Point Humidity Pressure Visibility Wind Dir Wind Speed Gust Speed Precip Events Conditions
12:16 AM 37.4 °F 29.3 °F 28.4 °F 70% 29.92 in 10.0 mi ESE 12.7 mph 20.7 mph N/A   Mostly Cloudy
12:36 AM 35.6 °F 27.1 °F 28.4 °F 75% 29.92 in 10.0 mi ESE 12.7 mph 23.0 mph N/A   Overcast
12:56 AM 37.4 °F 28.5 °F 28.4 °F 70% 29.92 in 10.0 mi ESE 15.0 mph 24.2 mph N/A   Overcast
1:16 AM 35.6 °F 26.2 °F 28.4 °F 75% 29.91 in 10.0 mi ESE 15.0 mph 24.2 mph N/A   Overcast
1:36 AM 35.6 °F 26.2 °F 28.4 °F 75% 29.90 in 10.0 mi East 15.0 mph 24.2 mph N/A   Overcast
1:56 AM 35.6 °F 26.6 °F 28.4 °F 75% 29.90 in 10.0 mi ESE 13.8 mph 20.7 mph N/A   Overcast
2:16 AM 35.6 °F 26.6 °F 30.2 °F 81% 29.90 in 9.0 mi ESE 13.8 mph 25.3 mph N/A   Overcast
2:36 AM 35.6 °F 27.1 °F 30.2 °F 81% 29.89 in 10.0 mi ESE 12.7 mph 20.7 mph N/A   Overcast
2:56 AM 35.6 °F 26.6 °F 30.2 °F 81% 29.89 in 10.0 mi ESE 13.8 mph 23.0 mph N/A   Overcast
3:16 AM 35.6 °F 27.1 °F 30.2 °F 81% 29.89 in 10.0 mi SE 12.7 mph 24.2 mph N/A   Overcast
3:36 AM 35.6 °F 26.6 °F 30.2 °F 81% 29.89 in 10.0 mi SE 13.8 mph 25.3 mph N/A   Overcast
4:16 AM 35.6 °F 26.6 °F 30.2 °F 81% 29.89 in 10.0 mi SE 13.8 mph 20.7 mph N/A   Overcast
4:36 AM 35.6 °F 27.5 °F 30.2 °F 81% 29.89 in 10.0 mi SE 11.5 mph 21.9 mph N/A   Overcast
4:56 AM 35.6 °F 26.6 °F 30.2 °F 81% 29.88 in 9.0 mi SE 13.8 mph 23.0 mph N/A   Overcast
5:16 AM 35.6 °F 27.1 °F 30.2 °F 81% 29.88 in 10.0 mi ESE 12.7 mph 21.9 mph N/A   Overcast
5:36 AM 35.6 °F 27.5 °F 30.2 °F 81% 29.88 in 10.0 mi SE 11.5 mph 18.4 mph N/A   Overcast
5:56 AM 35.6 °F 26.6 °F 30.2 °F 81% 29.88 in 10.0 mi ESE 13.8 mph 20.7 mph N/A   Overcast
6:16 AM 35.6 °F 27.1 °F 30.2 °F 81% 29.88 in 10.0 mi ESE 12.7 mph 19.6 mph N/A   Overcast
6:36 AM 35.6 °F 27.5 °F 30.2 °F 81% 29.88 in 10.0 mi ESE 11.5 mph 18.4 mph N/A   Overcast
6:56 AM 37.4 °F 29.8 °F 30.2 °F 75% 29.87 in 10.0 mi East 11.5 mph 20.7 mph N/A   Overcast
7:16 AM 35.6 °F 28.0 °F 30.2 °F 81% 29.87 in 10.0 mi ESE 10.4 mph - N/A   Overcast
7:36 AM 37.4 °F 29.8 °F 30.2 °F 75% 29.87 in 10.0 mi East 11.5 mph 20.7 mph N/A   Overcast
7:56 AM 37.4 °F 28.9 °F 30.2 °F 75% 29.87 in 10.0 mi ESE 13.8 mph 17.3 mph N/A   Overcast
8:16 AM 37.4 °F 30.3 °F 30.2 °F 75% 29.87 in 10.0 mi ESE 10.4 mph 17.3 mph N/A   Overcast
8:36 AM 37.4 °F 29.8 °F 30.2 °F 75% 29.87 in 10.0 mi East 11.5 mph 19.6 mph N/A   Overcast
8:56 AM 37.4 °F 28.9 °F 30.2 °F 75% 29.87 in 10.0 mi SE 13.8 mph 20.7 mph N/A   Overcast
9:16 AM 37.4 °F 29.8 °F 30.2 °F 75% 29.88 in 10.0 mi ESE 11.5 mph 19.6 mph N/A   Overcast
9:36 AM 37.4 °F 28.9 °F 30.2 °F 75% 29.88 in 10.0 mi ESE 13.8 mph 17.3 mph N/A   Overcast
9:56 AM 37.4 °F 28.5 °F 30.2 °F 75% 29.88 in 9.0 mi SE 15.0 mph 23.0 mph N/A   Overcast
10:16 AM 37.4 °F 30.3 °F 30.2 °F 75% 29.88 in 10.0 mi SSE 10.4 mph 23.0 mph N/A   Overcast
10:36 AM 37.4 °F 28.9 °F 30.2 °F 75% 29.89 in 10.0 mi ESE 13.8 mph 20.7 mph N/A   Overcast
10:56 AM 37.4 °F 28.5 °F 30.2 °F 75% 29.89 in 10.0 mi ESE 15.0 mph 23.0 mph N/A   Overcast
11:16 AM 37.4 °F 27.5 °F 30.2 °F 75% 29.89 in 10.0 mi ESE 18.4 mph 24.2 mph N/A   Overcast
11:36 AM 37.4 °F 28.5 °F 30.2 °F 75% 29.89 in 10.0 mi ESE 15.0 mph 24.2 mph N/A   Overcast
11:56 AM 37.4 °F 29.8 °F 30.2 °F 75% 29.89 in 9.0 mi ESE 11.5 mph 20.7 mph N/A   Overcast
12:16 PM 37.4 °F 29.3 °F 32.0 °F 81% 29.89 in 10.0 mi ESE 12.7 mph 23.0 mph N/A   Overcast
12:36 PM 37.4 °F 29.8 °F 32.0 °F 81% 29.89 in 10.0 mi SE 11.5 mph 23.0 mph N/A   Overcast
12:56 PM 37.4 °F 30.3 °F 32.0 °F 81% 29.90 in 6.0 mi East 10.4 mph 19.6 mph N/A   Overcast
1:16 PM 37.4 °F 30.3 °F 32.0 °F 81% 29.90 in 4.0 mi ESE 10.4 mph 19.6 mph N/A   Overcast
1:36 PM 37.4 °F 29.3 °F 32.0 °F 81% 29.90 in 8.0 mi ESE 12.7 mph 23.0 mph N/A   Overcast
1:56 PM 37.4 °F 28.9 °F 32.0 °F 81% 29.90 in 10.0 mi East 13.8 mph 25.3 mph N/A   Overcast
2:16 PM 37.4 °F 28.9 °F 33.8 °F 87% 29.90 in 10.0 mi East 13.8 mph 25.3 mph N/A   Overcast
2:36 PM 37.4 °F 29.3 °F 33.8 °F 87% 29.90 in 4.0 mi East 12.7 mph 21.9 mph N/A   Overcast
2:56 PM 37.4 °F 27.8 °F 33.8 °F 87% 29.90 in 10.0 mi East 17.3 mph 28.8 mph N/A   Overcast
3:16 PM 37.4 °F 28.9 °F 33.8 °F 87% 29.90 in 7.0 mi East 13.8 mph 23.0 mph N/A   Overcast
3:36 PM 37.4 °F 28.2 °F 33.8 °F 87% 29.89 in 4.0 mi East 16.1 mph 26.5 mph N/A   Overcast
3:56 PM 37.4 °F 27.5 °F 33.8 °F 87% 29.89 in 9.0 mi ESE 18.4 mph 24.2 mph N/A   Overcast
4:16 PM 37.4 °F 27.8 °F 33.8 °F 87% 29.89 in 10.0 mi East 17.3 mph 24.2 mph N/A   Overcast
4:36 PM 37.4 °F 28.5 °F 33.8 °F 87% 29.89 in 10.0 mi East 15.0 mph 25.3 mph N/A   Overcast
4:56 PM 37.4 °F 28.2 °F 33.8 °F 87% 29.88 in 10.0 mi East 16.1 mph 27.6 mph N/A   Overcast
5:16 PM 37.4 °F 29.3 °F 33.8 °F 87% 29.88 in 8.0 mi East 12.7 mph 24.2 mph N/A   Overcast
5:36 PM 37.4 °F 28.2 °F 33.8 °F 87% 29.88 in 4.0 mi East 16.1 mph 23.0 mph N/A   Overcast
5:56 PM 37.4 °F 28.5 °F 33.8 °F 87% 29.87 in 3.0 mi East 15.0 mph 25.3 mph N/A   Overcast
6:16 PM 37.4 °F 28.5 °F 33.8 °F 87% 29.87 in 5.0 mi East 15.0 mph 23.0 mph N/A   Overcast
6:36 PM 37.4 °F 27.5 °F 33.8 °F 87% 29.87 in 6.0 mi East 18.4 mph 27.6 mph N/A   Overcast
6:56 PM 37.4 °F 27.5 °F 33.8 °F 87% 29.86 in 7.0 mi ENE 18.4 mph 26.5 mph N/A   Overcast
7:16 PM 37.4 °F 28.9 °F 33.8 °F 87% 29.86 in 8.0 mi East 13.8 mph 27.6 mph N/A   Overcast
7:36 PM 37.4 °F 29.3 °F 33.8 °F 87% 29.86 in 10.0 mi East 12.7 mph 24.2 mph N/A   Overcast
7:56 PM 37.4 °F 28.5 °F 33.8 °F 87% 29.86 in 8.0 mi East 15.0 mph 26.5 mph N/A   Overcast
8:16 PM 37.4 °F 27.8 °F 33.8 °F 87% 29.85 in 7.0 mi East 17.3 mph 29.9 mph N/A   Overcast
8:36 PM 37.4 °F 28.9 °F 33.8 °F 87% 29.85 in 5.0 mi East 13.8 mph 23.0 mph N/A   Overcast
8:56 PM 37.4 °F 26.9 °F 33.8 °F 87% 29.85 in 7.0 mi East 20.7 mph 28.8 mph N/A   Overcast
9:16 PM 37.4 °F 29.3 °F 33.8 °F 87% 29.85 in 10.0 mi East 12.7 mph 24.2 mph N/A   Overcast
9:36 PM 37.4 °F 28.9 °F 33.8 °F 87% 29.85 in 10.0 mi East 13.8 mph 25.3 mph N/A   Overcast
9:56 PM 37.4 °F 26.9 °F 33.8 °F 87% 29.86 in 10.0 mi ENE 20.7 mph 28.8 mph N/A   Overcast
10:16 PM 37.4 °F 27.5 °F 33.8 °F 87% 29.86 in 9.0 mi ENE 18.4 mph 27.6 mph N/A   Overcast
10:36 PM 37.4 °F 27.5 °F 33.8 °F 87% 29.86 in 6.0 mi ENE 18.4 mph 27.6 mph N/A   Overcast
10:56 PM 37.4 °F 27.2 °F 33.8 °F 87% 29.86 in 10.0 mi ENE 19.6 mph 25.3 mph N/A   Overcast
11:16 PM 37.4 °F 26.9 °F 33.8 °F 87% 29.86 in 10.0 mi ENE 20.7 mph 25.3 mph N/A   Overcast
11:36 PM 37.4 °F 28.2 °F 33.8 °F 87% 29.85 in 10.0 mi East 16.1 mph 25.3 mph N/A   Overcast
11:56 PM 37.4 °F 27.2 °F 33.8 °F 87% 29.85 in 10.0 mi East 19.6 mph 32.2 mph N/A   Overcast